Weather History for Gillette, WY

Change the Weather History Date:

Thursday, May 16, 2013

  Actual Average Record
Temperature  
Mean Temperature 63 °F 53 °F  
Max Temperature 77 °F 66 °F 90 °F (2012)
Min Temperature 48 °F 40 °F 28 °F (1942)
Degree Days  
Heating Degree Days 2 12  
Month to date heating degree days 198 233  
Since 1 July heating degree days 7160 7249  
Cooling Degree Days 0 0  
Month to date cooling degree days 8 0  
Year to date cooling degree days 8 0  
Growing Degree Days 10 (Base 50)    
Moisture  
Dew Point 47 °F    
Average Humidity 67    
Maximum Humidity 100    
Minimum Humidity 33    
Precipitation  
Precipitation 0.10 in 0.08 in 1.05 in (1942)
Month to date precipitation 0.12 1.18  
Year to date precipitation 3.24 4.39  
Sea Level Pressure  
Sea Level Pressure 29.75 in    
Wind  
Wind Speed 7 mph (NW)    
Max Wind Speed 18 mph    
Max Gust Speed 25 mph    
Visibility 9 miles    
Events Rain , Thunderstorm    
T = Trace of Precipitation, MM = Missing Value Source: NWS Daily Summary

Daily Weather History Graph

Daily Weather History Graph

Search for Another Location

Airport:

Trip Planner

Search our weather history database for the weather conditions in past years. The results will help you decide how hot, cold, wet, or windy it might be!

Date:

Astronomy

May. 16, 2013 Rise Set
Actual Time 5:33 AM MDT 8:24 PM MDT
Civil Twilight 4:59 AM MDT 8:58 PM MDT
Nautical Twilight 4:17 AM MDT 9:41 PM MDT
Astronomical Twilight 3:27 AM MDT 10:31 PM MDT
Moon 11:13 AM MDT (5/16) 12:42 AM MDT (5/16)
Length of Visible Light 15h 58m
Length of Day
14h 50m
Waxing Crescent, 36% of the Moon is Illuminated
May 16
Waxing Crescent
May 17
First Quarter
May 24
Full
May 31
Last Quarter
Jun 8
New

Hourly Weather History & Observations

Time (MDT) Temp. Dew Point Humidity Pressure Visibility Wind Dir Wind Speed Gust Speed Precip Events Conditions
12:53 AM 57.0 °F 46.9 °F 69% 29.75 in 10.0 mi South 17.3 mph - N/A   Clear
1:53 AM 57.0 °F 48.0 °F 72% 29.73 in 10.0 mi South 16.1 mph - N/A   Clear
2:53 AM 57.0 °F 48.0 °F 72% 29.71 in 10.0 mi South 13.8 mph - N/A   Overcast
3:53 AM 57.0 °F 48.9 °F 74% 29.72 in 10.0 mi South 12.7 mph - N/A   Overcast
4:53 AM 52.0 °F 48.0 °F 86% 29.73 in 10.0 mi Calm Calm - N/A   Partly Cloudy
5:53 AM 51.1 °F 43.0 °F 74% 29.73 in 10.0 mi North 4.6 mph - N/A   Clear
6:53 AM 55.0 °F 42.1 °F 62% 29.73 in 10.0 mi Calm Calm - N/A   Mostly Cloudy
7:53 AM 57.9 °F 44.1 °F 60% 29.73 in 10.0 mi SSW 3.5 mph - N/A   Partly Cloudy
8:53 AM 60.1 °F 44.1 °F 55% 29.75 in 10.0 mi West 5.8 mph - N/A   Clear
9:53 AM 64.0 °F 45.0 °F 50% 29.74 in 10.0 mi NW 8.1 mph - N/A   Clear
10:53 AM 66.0 °F 45.0 °F 47% 29.74 in 10.0 mi Variable 4.6 mph - N/A   Scattered Clouds
11:53 AM 70.0 °F 44.1 °F 39% 29.73 in 10.0 mi NE 6.9 mph - N/A   Clear
12:53 PM 73.4 °F 46.4 °F 38% 29.82 in 10.0 mi NNE 11.5 mph 20.7 mph N/A   Clear
1:53 PM 73.9 °F 43.0 °F 33% 29.68 in 10.0 mi Variable 6.9 mph - N/A   Clear
2:53 PM 73.9 °F 45.0 °F 35% 29.68 in 10.0 mi NNW 13.8 mph 18.4 mph N/A   Partly Cloudy
3:53 PM 73.9 °F 45.0 °F 35% 29.66 in 10.0 mi East 9.2 mph 18.4 mph N/A   Scattered Clouds
4:53 PM 71.1 °F 44.1 °F 38% 29.66 in 10.0 mi North 8.1 mph 23.0 mph N/A   Clear
5:53 PM 69.1 °F 44.1 °F 40% 29.68 in 10.0 mi ENE 6.9 mph - N/A   Overcast
6:07 PM 66.2 °F 46.4 °F 49% 29.78 in 8.0 mi SSE 18.4 mph 24.2 mph 0.00 in Rain , Thunderstorm Light Rain
6:33 PM 59.0 °F 51.8 °F 77% 29.82 in 8.0 mi WNW 13.8 mph 19.6 mph 0.01 in Rain , Thunderstorm Light Thunderstorms and Rain
6:46 PM 57.2 °F 51.8 °F 82% 29.83 in 5.0 mi West 11.5 mph - 0.04 in Rain , Thunderstorm Light Thunderstorms and Rain
6:53 PM 55.9 °F 52.0 °F 87% 29.77 in 6.0 mi West 10.4 mph - 0.05 in Rain Light Rain
7:13 PM 55.4 °F 51.8 °F 88% 29.83 in 6.0 mi WNW 8.1 mph - 0.03 in Rain , Thunderstorm Light Rain
7:28 PM 55.4 °F 51.8 °F 88% 29.82 in 8.0 mi ENE 4.6 mph - 0.05 in Rain Light Rain
7:53 PM 57.0 °F 53.1 °F 87% 29.76 in 10.0 mi North 4.6 mph - 0.05 in   Partly Cloudy
8:53 PM 54.0 °F 52.0 °F 93% 29.79 in 10.0 mi North 5.8 mph - N/A   Clear
9:53 PM 48.9 °F 48.9 °F 100% 29.78 in 10.0 mi Calm Calm - N/A   Clear
10:53 PM 50.0 °F 48.9 °F 96% 29.78 in 10.0 mi South 4.6 mph - N/A   Clear
11:53 PM 51.1 °F 50.0 °F 96% 29.78 in 10.0 mi Calm Calm - N/A   Mostly Cloudy